User: anonymous   Login
Location: Unspecified
(0.0000°N, 0.0000°E)
Time: 16:24:28
(UTC+00:00)
Language:

USA 97 - Orbit

View from above orbital plane
View from above orbital plane
View from above satellite
View from above satellite

Ground track
Ground track

The orbit data is extracted from the following two-line orbital elements,

1 22915U 93074A   18291.63353600 0.00000000  00000-0  00000-0 0    02
2 22915  11.1677  34.2901 0008373 289.6226  70.2991  0.98533935    02
Epoch (UTC): 18 October 2018 15:12:17
Eccentricity: 0.0008373
inclination: 11.1677°
perigee height: 36245 km
apogee height: 36316 km
right ascension of ascending node: 34.2901°
argument of perigee: 289.6226°
revolutions per day: 0.98533935
mean anomaly at epoch: 70.2991°
orbit number at epoch: 0

The dashed part of the orbit path shows where the satellite is in the earth's shadow,  

DLR